sat.trackr.live / text

‹ back to catalog

LILIUM-1

NORAD 58467 · 2023-185F

PAYLOAD ACTIVE UNKNOWN

§ Identity

Operator
Country
ROC
Launch date
2023-12-01
Launch site
AFWTR
Launch vehicle
Mass (kg)
RCS (m²)

External: N2YO · Heavens-Above · Gunter

§ Orbital elements

Epoch: 2026-06-01T00:51:19.618272Z

Period
88.28 min
Inclination
97.3060°
Eccentricity
0.0014926
Mean motion
16.31146913 rev/d
Perigee alt
179.7 km
Apogee alt
199.3 km
Semi-major
6,567.6 km
B*
1.1520e-3
RAAN
236.4922°
Arg perigee
262.3118°
Mean anomaly
97.6482°
Rev number
14,006

§ Raw data

LILIUM-11 58467U 23185F   26152.03564373  .05761009  24419-5  11520-2 0  99902 58467  97.3060 236.4922 0014926 262.3118  97.6482 16.31146913140062

JSON: /api/v1/satellites/58467 · /tle

For live sub-satellite position, see the globe view (requires WebGL).

§ Visibility from observer

Set your observer location to see the next 7 days of passes ≥ 10°. The values pass through the URL so the page stays shareable.

No JS? Fill the form by hand. The geolocation button needs JavaScript.

§ Radio — SatNOGS DB

ModeDescriptionDownlinkUplink
BPSK Mode U - Transmitter (inactive) 400.455 MHz
BPSK Telemetry (inactive) 436.886 MHz

2 transmitters · refreshed weekly from db.satnogs.org